Simultaneous Nadir Overpasses (SNOs) Predictions

Prediction of SNOs near US between AQUA and NPP Satellite Orbit:

Table of predicted SNOs near US for the next 10.0 days since TLE Epoch: 11/3/2017
Index Date (AQUA) Time (AQUA) AQUA Lat,Lon Date (NPP) Time (NPP) NPP Lat,Lon Distance(km) Time Diff (sec)
1 11/05/2017 18:16:46 50.00, -80.20 11/05/2017 18:11:02 49.69, -81.80 119.58 344
2 11/05/2017 19:55:39 49.99,-104.92 11/05/2017 19:52:30 49.58,-107.13 164.82 189
3 11/05/2017 21:30:48 36.63,-124.99 11/05/2017 21:30:08 36.15,-127.62 241.66 40
4 11/08/2017 09:23:07 24.38,-113.20 11/08/2017 09:15:59 24.50,-113.71 52.96 428
5 11/11/2017 06:30:08 46.35, -65.03 11/11/2017 06:31:01 46.77, -67.12 166.99 53
6 11/11/2017 08:08:01 49.91, -88.33 11/11/2017 08:11:27 50.45, -90.93 194.20 206
7 11/11/2017 09:46:54 49.91,-113.05 11/11/2017 09:52:55 50.55,-116.25 238.58 361
8 11/13/2017 19:06:10 49.96, -92.53 11/13/2017 19:01:44 49.62, -94.46 143.74 266




NCC Satellite Simultaneous Nadir Overpasses (SNOs) Prediction Service
